Weather History for Lexington, KY

Change the Weather History Date:

Thursday, February 21, 2013

  Actual Average Record
Temperature  
Mean Temperature 27 °F 38 °F  
Max Temperature 37 °F 47 °F 71 °F (1874)
Min Temperature 16 °F 30 °F -2 °F (1896)
Degree Days  
Heating Degree Days 38 27  
Month to date heating degree days 645 610  
Since 1 July heating degree days 3324 3393  
Cooling Degree Days 0 0  
Month to date cooling degree days 0 0  
Year to date cooling degree days 0 0  
Moisture  
Dew Point 19 °F    
Average Humidity 66    
Maximum Humidity 85    
Minimum Humidity 47    
Precipitation  
Precipitation 0.24 in 0.12 in 2.02 in (1993)
Month to date precipitation 0.93 2.38  
Year to date precipitation 5.39 5.58  
Snow  
Snow 0.00 in 0.20 in 6.20 in (1929)
Month to date snowfall 2.6 3.8  
Since 1 July snowfall 8.5 10.5  
Snow Depth 0.00 in    
Sea Level Pressure  
Sea Level Pressure 30.21 in    
Wind  
Wind Speed 11 mph (ENE)    
Max Wind Speed 25 mph    
Max Gust Speed 32 mph    
Visibility 9 miles    
Events Rain    
T = Trace of Precipitation, MM = Missing Value Source: NWS Daily Summary

Daily Weather History Graph

Daily Weather History Graph

Search for Another Location

Airport:

Trip Planner

Search our weather history database for the weather conditions in past years. The results will help you decide how hot, cold, wet, or windy it might be!

Date:

Astronomy

Feb. 21, 2013 Rise Set
Actual Time 7:20 AM EST 6:23 PM EST
Civil Twilight 6:53 AM EST 6:50 PM EST
Nautical Twilight 6:23 AM EST 7:21 PM EST
Astronomical Twilight 5:52 AM EST 7:51 PM EST
Moon 2:40 PM EST (2/21) 4:22 AM EST (2/21)
Length of Visible Light 11h 56m
Length of Day
11h 03m
Waxing Gibbous, 83% of the Moon is Illuminated
Feb 21
Waxing Gibbous
Feb 25
Full
Mar 4
Last Quarter
Mar 11
New
Mar 19
First Quarter

Hourly Weather History & Observations

Time (EST) Temp. Windchill Dew Point Humidity Pressure Visibility Wind Dir Wind Speed Gust Speed Precip Events Conditions
12:54 AM 19.9 °F 11.1 °F 12.9 °F 74% 30.30 in 10.0 mi NNE 6.9 mph - N/A   Clear
1:54 AM 19.9 °F 11.1 °F 12.9 °F 74% 30.31 in 10.0 mi North 6.9 mph - N/A   Clear
2:54 AM 18.0 °F 11.1 °F 12.0 °F 78% 30.30 in 10.0 mi NNE 4.6 mph - N/A   Clear
3:54 AM 17.1 °F 8.7 °F 12.0 °F 81% 30.30 in 10.0 mi NE 5.8 mph - N/A   Clear
4:54 AM 17.1 °F 7.6 °F 12.0 °F 81% 30.30 in 10.0 mi NE 6.9 mph - N/A   Clear
5:54 AM 17.1 °F 10.0 °F 12.9 °F 84% 30.33 in 10.0 mi NE 4.6 mph - N/A   Clear
6:54 AM 17.1 °F 6.6 °F 12.9 °F 84% 30.32 in 10.0 mi NE 8.1 mph - N/A   Clear
7:54 AM 18.0 °F 6.1 °F 14.0 °F 84% 30.34 in 10.0 mi NE 10.4 mph - N/A   Clear
8:54 AM 21.9 °F 10.4 °F 16.0 °F 78% 30.35 in 10.0 mi East 11.5 mph - N/A   Clear
9:54 AM 25.0 °F 14.2 °F 15.1 °F 66% 30.33 in 10.0 mi ENE 11.5 mph - N/A   Clear
10:54 AM 28.0 °F 16.5 °F 17.1 °F 63% 30.30 in 10.0 mi NE 15.0 mph - N/A   Clear
11:54 AM 30.9 °F 21.7 °F 17.1 °F 57% 30.28 in 10.0 mi ENE 11.5 mph 17.3 mph N/A   Clear
12:54 PM 33.1 °F 23.9 °F 18.0 °F 54% 30.25 in 10.0 mi ENE 12.7 mph - N/A   Clear
1:54 PM 35.1 °F 27.4 °F 19.0 °F 52% 30.23 in 10.0 mi East 10.4 mph - 0.00 in   Clear
2:54 PM 36.0 °F 26.3 °F 19.0 °F 50% 30.18 in 10.0 mi NE 16.1 mph - N/A   Clear
3:54 PM 36.0 °F 26.7 °F 19.0 °F 50% 30.13 in 10.0 mi East 15.0 mph - N/A   Clear
4:54 PM 36.0 °F 26.3 °F 19.0 °F 50% 30.15 in 10.0 mi ENE 16.1 mph - N/A   Clear
5:54 PM 36.0 °F 26.0 °F 18.0 °F 48% 30.13 in 10.0 mi ENE 17.3 mph 24.2 mph N/A   Overcast
6:54 PM 34.0 °F 24.6 °F 23.0 °F 64% 30.15 in 10.0 mi NE 13.8 mph - 0.00 in Rain Light Rain
7:54 PM 33.1 °F 25.5 °F 25.0 °F 72% 30.19 in 10.0 mi NNE 9.2 mph - 0.00 in   Overcast
8:54 PM 30.9 °F 22.2 °F 24.1 °F 76% 30.14 in 10.0 mi ENE 10.4 mph - 0.00 in   Overcast
9:22 PM 32.0 °F 22.1 °F 24.8 °F 75% 30.11 in 9.0 mi East 13.8 mph - 0.01 in Rain Light Freezing Rain
9:33 PM 30.2 °F 18.5 °F 26.6 °F 86% 30.09 in 6.0 mi ENE 17.3 mph - 0.03 in Rain Light Freezing Rain
9:54 PM 30.9 °F 19.8 °F 26.1 °F 82% 30.12 in 7.0 mi East 16.1 mph - 0.06 in Rain Light Freezing Rain
10:01 PM 30.2 °F 17.4 °F 26.6 °F 86% 30.06 in 6.0 mi East 20.7 mph - 0.02 in Rain Light Freezing Rain
10:54 PM 30.9 °F 18.7 °F 27.0 °F 85% 30.06 in 5.0 mi East 19.6 mph 29.9 mph 0.12 in Rain Light Freezing Rain
11:32 PM 30.2 °F 18.5 °F 28.4 °F 93% 30.02 in 6.0 mi ESE 17.3 mph 23.0 mph 0.04 in Rain Light Freezing Rain
11:54 PM 30.9 °F 21.7 °F 28.0 °F 89% 30.05 in 8.0 mi East 11.5 mph - 0.06 in Rain Light Freezing Rain